TimeHST,TemperatureF,Dew PointF,Humidity,Sea Level PressureIn,VisibilityMPH,Wind Direction,Wind SpeedMPH,Gust SpeedMPH,PrecipitationIn,Events,Conditions,WindDirDegrees,DateUTC
12:27 AM,68.0,64.4,88,30.02,10.0,South,6.9,-,N/A,,Mostly Cloudy,180,2013-03-09 10:27:00
12:56 AM,68.0,64.9,90,29.96,10.0,South,9.2,-,N/A,,Scattered Clouds,170,2013-03-09 10:56:00
1:30 AM,68.0,64.4,88,30.00,10.0,South,8.1,-,N/A,,Mostly Cloudy,170,2013-03-09 11:30:00
1:39 AM,68.0,66.2,94,30.00,10.0,South,8.1,-,N/A,,Mostly Cloudy,190,2013-03-09 11:39:00
1:56 AM,68.0,66.2,94,29.99,10.0,South,10.4,-,N/A,,Mostly Cloudy,180,2013-03-09 11:56:00
2:09 AM,68.0,66.2,94,29.99,10.0,South,9.2,-,N/A,,Mostly Cloudy,180,2013-03-09 12:09:00
2:39 AM,66.2,64.4,94,29.98,10.0,SSE,10.4,-,N/A,,Scattered Clouds,150,2013-03-09 12:39:00
2:56 AM,65.8,63.9,93,29.91,10.0,SE,9.2,-,N/A,,Scattered Clouds,140,2013-03-09 12:56:00
3:27 AM,68.0,64.4,88,29.96,10.0,SSE,10.4,-,N/A,,Mostly Cloudy,160,2013-03-09 13:27:00
3:56 AM,68.0,63.9,87,29.90,10.0,SSE,12.7,-,N/A,,Mostly Cloudy,160,2013-03-09 13:56:00
4:25 AM,68.0,64.4,88,29.95,10.0,SSE,12.7,-,N/A,,Mostly Cloudy,160,2013-03-09 14:25:00
4:56 AM,68.0,64.4,88,29.95,10.0,South,13.8,-,N/A,,Mostly Cloudy,170,2013-03-09 14:56:00
5:09 AM,68.0,64.4,88,29.95,10.0,South,12.7,-,N/A,,Mostly Cloudy,170,2013-03-09 15:09:00
5:40 AM,68.0,64.4,88,29.95,5.0,South,12.7,-,0.00,Rain,Light Rain,190,2013-03-09 15:40:00
5:49 AM,68.0,64.4,88,29.95,10.0,South,19.6,23.0,0.00,Rain,Light Rain,190,2013-03-09 15:49:00
5:56 AM,66.9,64.9,93,29.91,10.0,South,16.1,-,0.00,,Overcast,180,2013-03-09 15:56:00
6:06 AM,66.2,64.4,94,29.96,10.0,South,10.4,-,0.00,Rain,Light Rain,170,2013-03-09 16:06:00
6:38 AM,66.2,64.4,94,29.97,10.0,South,13.8,-,0.00,,Mostly Cloudy,180,2013-03-09 16:38:00
6:56 AM,66.9,64.9,93,29.94,10.0,South,13.8,-,0.01,,Overcast,190,2013-03-09 16:56:00
7:06 AM,66.2,66.2,100,29.98,10.0,South,13.8,-,0.00,,Mostly Cloudy,190,2013-03-09 17:06:00
7:11 AM,66.2,66.2,100,29.99,10.0,SSW,13.8,-,0.00,Rain,Light Rain,200,2013-03-09 17:11:00
7:40 AM,68.0,66.2,94,30.00,10.0,South,11.5,-,0.00,,Mostly Cloudy,180,2013-03-09 17:40:00
7:56 AM,68.0,66.2,94,30.00,10.0,South,13.8,-,N/A,,Mostly Cloudy,180,2013-03-09 17:56:00
8:03 AM,68.0,66.2,94,30.00,10.0,South,13.8,-,N/A,,Mostly Cloudy,180,2013-03-09 18:03:00
8:47 AM,69.8,64.4,83,30.01,10.0,South,12.7,-,N/A,,Mostly Cloudy,180,2013-03-09 18:47:00
8:56 AM,70.0,65.8,87,29.97,10.0,South,13.8,-,N/A,,Mostly Cloudy,180,2013-03-09 18:56:00
9:05 AM,69.8,66.2,88,30.02,10.0,South,12.7,-,N/A,,Mostly Cloudy,180,2013-03-09 19:05:00
9:48 AM,71.6,66.2,83,30.02,10.0,South,15.0,-,N/A,,Mostly Cloudy,180,2013-03-09 19:48:00
9:56 AM,72.0,65.8,81,29.97,10.0,South,13.8,-,N/A,,Mostly Cloudy,170,2013-03-09 19:56:00
10:14 AM,71.6,64.4,78,30.02,10.0,South,16.1,-,N/A,,Overcast,170,2013-03-09 20:14:00
10:24 AM,69.8,64.4,83,30.02,1.8,SSW,18.4,26.5,0.02,Rain,Heavy Rain,200,2013-03-09 20:24:00
10:39 AM,69.8,66.2,88,30.02,1.2,SSW,9.2,-,0.06,Rain,Rain,200,2013-03-09 20:39:00
10:48 AM,68.0,66.2,94,30.02,1.0,South,12.7,-,0.09,Rain,Heavy Rain,180,2013-03-09 20:48:00
10:56 AM,69.8,66.2,88,30.02,1.2,South,13.8,-,N/A,Rain,Light Rain,190,2013-03-09 20:56:00
10:58 AM,69.8,68.0,94,30.02,2.5,South,18.4,-,0.00,Rain,Light Rain,190,2013-03-09 20:58:00
11:05 AM,69.8,68.0,94,30.02,10.0,South,17.3,-,0.00,,Mostly Cloudy,190,2013-03-09 21:05:00
11:40 AM,71.6,68.0,88,30.00,10.0,South,19.6,24.2,0.00,,Mostly Cloudy,190,2013-03-09 21:40:00
11:56 AM,70.9,66.9,87,29.94,10.0,South,21.9,-,0.00,,Overcast,190,2013-03-09 21:56:00
12:03 PM,71.6,66.2,83,30.00,10.0,SSW,20.7,-,N/A,,Overcast,200,2013-03-09 22:03:00
12:46 PM,73.4,66.2,78,29.98,10.0,South,17.3,26.5,N/A,,Mostly Cloudy,190,2013-03-09 22:46:00
12:56 PM,73.9,65.8,76,29.92,10.0,South,17.3,24.2,N/A,,Mostly Cloudy,190,2013-03-09 22:56:00
1:56 PM,73.4,66.2,78,29.96,10.0,SSW,19.6,-,N/A,,Mostly Cloudy,200,2013-03-09 23:56:00
2:38 PM,73.4,66.2,78,29.95,10.0,SSW,19.6,-,N/A,,Overcast,200,2013-03-10 00:38:00
2:56 PM,72.9,65.8,79,29.89,10.0,South,21.9,25.3,N/A,,Mostly Cloudy,190,2013-03-10 00:56:00
3:47 PM,68.0,64.4,88,29.95,5.0,WSW,16.1,24.2,0.00,Rain,Light Rain,240,2013-03-10 01:47:00
3:56 PM,65.8,63.0,90,29.91,0.5,WSW,13.8,24.2,0.01,Fog-Rain,Rain,250,2013-03-10 01:56:00
4:05 PM,66.2,64.4,94,29.95,0.2,WSW,13.8,19.6,0.01,Fog-Rain,Light Rain,250,2013-03-10 02:05:00
4:21 PM,66.2,64.4,94,29.95,1.2,WSW,12.7,-,0.02,Rain,Light Rain,240,2013-03-10 02:21:00
4:24 PM,66.2,64.4,94,29.95,2.5,WSW,11.5,-,0.02,Rain,Light Rain,240,2013-03-10 02:24:00
4:31 PM,66.2,64.4,94,29.95,10.0,WSW,8.1,-,0.02,Rain,Light Rain,240,2013-03-10 02:31:00
4:39 PM,66.2,64.4,94,29.95,10.0,WSW,9.2,-,0.02,Rain,Light Rain,240,2013-03-10 02:39:00
4:56 PM,66.2,64.4,94,29.96,10.0,SW,9.2,-,N/A,Rain,Light Rain,230,2013-03-10 02:56:00
5:06 PM,66.2,64.4,94,29.96,10.0,WSW,9.2,-,0.00,,Overcast,250,2013-03-10 03:06:00
5:22 PM,66.2,64.4,94,29.96,10.0,SW,6.9,-,0.00,,Overcast,230,2013-03-10 03:22:00
5:32 PM,66.2,64.4,94,29.96,10.0,SW,8.1,-,0.00,,Overcast,230,2013-03-10 03:32:00
5:56 PM,63.0,61.0,93,29.94,6.0,SE,9.2,-,0.00,Rain,Light Rain,130,2013-03-10 03:56:00
6:07 PM,62.6,60.8,94,29.98,10.0,SSE,11.5,-,0.00,Rain,Light Rain,150,2013-03-10 04:07:00
6:40 PM,64.4,62.6,94,29.98,7.0,Variable,5.8,-,0.01,Rain,Light Rain,0,2013-03-10 04:40:00
6:56 PM,64.9,63.0,93,29.95,4.0,SW,11.5,19.6,0.02,Rain,Light Rain,220,2013-03-10 04:56:00
6:59 PM,64.4,62.6,94,29.99,2.5,SSW,13.8,-,0.01,Rain,Light Rain,210,2013-03-10 04:59:00
7:02 PM,64.4,62.6,94,29.99,1.8,SSW,16.1,-,0.01,Rain,Rain,200,2013-03-10 05:02:00
7:07 PM,64.4,62.6,94,29.99,2.0,SSW,15.0,-,0.01,Rain,Light Rain,200,2013-03-10 05:07:00
7:20 PM,64.4,62.6,94,30.00,1.8,SSW,10.4,-,0.03,Rain,Rain,210,2013-03-10 05:20:00
7:27 PM,64.4,62.6,94,30.00,1.5,SW,8.1,-,0.04,Rain,Rain,220,2013-03-10 05:27:00
7:33 PM,64.4,62.6,94,30.01,1.0,SW,9.2,-,0.05,Rain,Rain,220,2013-03-10 05:33:00
7:43 PM,64.4,62.6,94,30.00,1.5,South,8.1,-,0.07,Rain,Rain,170,2013-03-10 05:43:00
7:56 PM,62.6,62.6,100,30.01,2.5,South,9.2,-,N/A,Rain,Light Rain,180,2013-03-10 05:56:00
8:01 PM,62.6,62.6,100,30.01,7.0,South,8.1,-,0.00,Rain,Light Rain,170,2013-03-10 06:01:00
8:56 PM,63.0,61.9,96,29.97,10.0,East,6.9,-,0.00,,Mostly Cloudy,100,2013-03-10 06:56:00
9:56 PM,63.0,61.9,96,29.97,10.0,East,8.1,-,N/A,,Scattered Clouds,90,2013-03-10 07:56:00
10:56 PM,63.0,59.9,90,29.98,10.0,ESE,5.8,-,N/A,,Clear,110,2013-03-10 08:56:00
11:31 PM,64.4,62.6,94,30.02,10.0,SSE,8.1,-,N/A,,Mostly Cloudy,150,2013-03-10 09:31:00
11:44 PM,66.2,64.4,94,30.02,10.0,SSW,10.4,-,N/A,,Mostly Cloudy,200,2013-03-10 09:44:00
11:56 PM,65.8,64.9,97,29.97,8.0,South,10.4,-,N/A,,Overcast,190,2013-03-10 09:56:00